TimeCST,TemperatureF,Dew PointF,Humidity,Sea Level PressureIn,VisibilityMPH,Wind Direction,Wind SpeedMPH,Gust SpeedMPH,PrecipitationIn,Events,Conditions,WindDirDegrees,DateUTC
12:15 AM,53.6,32.0,44,30.19,10.0,SSE,8.1,-,N/A,,Clear,150,2013-03-08 06:15:00
12:35 AM,53.6,32.0,44,30.18,10.0,SE,8.1,-,N/A,,Clear,140,2013-03-08 06:35:00
12:55 AM,53.6,32.0,44,30.18,10.0,SE,6.9,-,N/A,,Clear,140,2013-03-08 06:55:00
1:15 AM,51.8,32.0,47,30.19,10.0,SSE,8.1,-,N/A,,Clear,150,2013-03-08 07:15:00
1:35 AM,51.8,32.0,47,30.19,10.0,SE,5.8,-,N/A,,Clear,140,2013-03-08 07:35:00
1:55 AM,50.0,32.0,50,30.19,10.0,SE,4.6,-,N/A,,Clear,140,2013-03-08 07:55:00
2:15 AM,50.0,32.0,50,30.19,10.0,SSE,4.6,-,N/A,,Clear,150,2013-03-08 08:15:00
2:35 AM,50.0,32.0,50,30.20,10.0,SSE,3.5,-,N/A,,Clear,160,2013-03-08 08:35:00
2:55 AM,48.2,32.0,54,30.18,10.0,East,5.8,-,N/A,,Clear,100,2013-03-08 08:55:00
3:15 AM,48.2,33.8,58,30.18,10.0,SE,3.5,-,N/A,,Clear,140,2013-03-08 09:15:00
3:35 AM,48.2,33.8,58,30.19,10.0,SE,3.5,-,N/A,,Clear,140,2013-03-08 09:35:00
3:55 AM,50.0,33.8,54,30.20,10.0,SSE,4.6,-,N/A,,Clear,150,2013-03-08 09:55:00
4:15 AM,46.4,35.6,66,30.18,10.0,SE,4.6,-,N/A,,Clear,130,2013-03-08 10:15:00
4:35 AM,48.2,35.6,62,30.19,10.0,SSE,5.8,-,N/A,,Clear,150,2013-03-08 10:35:00
4:55 AM,48.2,35.6,62,30.18,10.0,SE,5.8,-,N/A,,Clear,130,2013-03-08 10:55:00
5:15 AM,48.2,35.6,62,30.19,10.0,SE,8.1,-,N/A,,Clear,130,2013-03-08 11:15:00
5:35 AM,48.2,35.6,62,30.19,10.0,SE,8.1,-,N/A,,Clear,130,2013-03-08 11:35:00
5:55 AM,48.2,35.6,62,30.21,10.0,SE,6.9,-,N/A,,Clear,140,2013-03-08 11:55:00
6:35 AM,48.2,35.6,62,30.20,10.0,ESE,6.9,-,N/A,,Clear,120,2013-03-08 12:35:00
6:55 AM,48.2,35.6,62,30.20,10.0,SE,8.1,-,N/A,,Mostly Cloudy,130,2013-03-08 12:55:00
7:15 AM,50.0,35.6,58,30.22,10.0,SE,8.1,-,N/A,,Overcast,130,2013-03-08 13:15:00
7:35 AM,50.0,35.6,58,30.22,10.0,SE,10.4,-,N/A,,Overcast,130,2013-03-08 13:35:00
7:55 AM,51.8,37.4,58,30.22,10.0,ESE,8.1,-,N/A,,Mostly Cloudy,120,2013-03-08 13:55:00
8:15 AM,51.8,39.2,62,30.22,10.0,SE,5.8,-,N/A,,Mostly Cloudy,140,2013-03-08 14:15:00
8:35 AM,53.6,39.2,58,30.23,10.0,NE,3.5,-,N/A,,Overcast,50,2013-03-08 14:35:00
8:55 AM,53.6,39.2,58,30.24,10.0,ESE,4.6,-,N/A,,Overcast,110,2013-03-08 14:55:00
9:15 AM,53.6,41.0,62,30.24,10.0,ESE,8.1,-,N/A,,Overcast,120,2013-03-08 15:15:00
9:35 AM,55.4,41.0,58,30.25,10.0,ESE,6.9,-,N/A,,Overcast,120,2013-03-08 15:35:00
9:55 AM,55.4,41.0,58,30.25,10.0,SE,5.8,-,N/A,,Overcast,130,2013-03-08 15:55:00
10:15 AM,57.2,42.8,59,30.26,10.0,SE,6.9,-,N/A,,Overcast,130,2013-03-08 16:15:00
10:35 AM,57.2,42.8,59,30.26,7.0,SE,8.1,-,N/A,,Overcast,130,2013-03-08 16:35:00
10:55 AM,59.0,42.8,55,30.25,10.0,SE,9.2,-,N/A,,Overcast,130,2013-03-08 16:55:00
11:15 AM,60.8,44.6,55,30.25,10.0,ESE,11.5,-,N/A,,Overcast,120,2013-03-08 17:15:00
11:35 AM,59.0,44.6,59,30.24,10.0,SE,10.4,-,N/A,,Overcast,140,2013-03-08 17:35:00
11:55 AM,60.8,44.6,55,30.22,10.0,ESE,13.8,-,N/A,,Overcast,120,2013-03-08 17:55:00
12:15 PM,60.8,44.6,55,30.22,10.0,ESE,11.5,-,N/A,,Overcast,120,2013-03-08 18:15:00
12:35 PM,60.8,44.6,55,30.20,10.0,ESE,12.7,-,N/A,,Scattered Clouds,120,2013-03-08 18:35:00
12:55 PM,60.8,44.6,55,30.19,10.0,SE,10.4,-,N/A,,Scattered Clouds,130,2013-03-08 18:55:00
1:15 PM,62.6,42.8,48,30.17,10.0,ESE,10.4,-,N/A,,Mostly Cloudy,120,2013-03-08 19:15:00
1:35 PM,62.6,42.8,48,30.15,10.0,ESE,9.2,-,N/A,,Mostly Cloudy,110,2013-03-08 19:35:00
1:55 PM,62.6,42.8,48,30.15,10.0,ESE,5.8,-,N/A,,Mostly Cloudy,120,2013-03-08 19:55:00
2:15 PM,62.6,42.8,48,30.14,10.0,SE,8.1,-,N/A,,Overcast,140,2013-03-08 20:15:00
2:35 PM,64.4,44.6,49,30.13,10.0,SE,9.2,-,N/A,,Mostly Cloudy,130,2013-03-08 20:35:00
2:55 PM,64.4,44.6,49,30.12,10.0,SE,9.2,-,N/A,,Mostly Cloudy,140,2013-03-08 20:55:00
3:15 PM,64.4,44.6,49,30.12,10.0,SE,8.1,-,N/A,,Mostly Cloudy,130,2013-03-08 21:15:00
3:35 PM,64.4,44.6,49,30.11,10.0,ESE,9.2,-,N/A,,Overcast,120,2013-03-08 21:35:00
3:55 PM,64.4,42.8,45,30.11,10.0,ESE,8.1,-,N/A,,Overcast,120,2013-03-08 21:55:00
4:15 PM,64.4,44.6,49,30.11,10.0,SE,8.1,-,N/A,,Overcast,130,2013-03-08 22:15:00
4:35 PM,64.4,44.6,49,30.10,10.0,ESE,6.9,-,N/A,Rain,Light Rain,120,2013-03-08 22:35:00
4:55 PM,64.4,44.6,49,30.11,10.0,SE,8.1,-,N/A,,Mostly Cloudy,140,2013-03-08 22:55:00
5:15 PM,64.4,44.6,49,30.11,10.0,SE,9.2,-,N/A,Rain,Light Rain,140,2013-03-08 23:15:00
5:35 PM,64.4,44.6,49,30.11,10.0,SE,5.8,-,N/A,,Overcast,140,2013-03-08 23:35:00
5:55 PM,64.4,44.6,49,30.11,10.0,SSE,5.8,-,N/A,,Overcast,150,2013-03-08 23:55:00
6:15 PM,64.4,44.6,49,30.10,10.0,SE,6.9,-,N/A,,Overcast,130,2013-03-09 00:15:00
6:35 PM,64.4,44.6,49,30.09,10.0,SE,4.6,-,N/A,,Overcast,130,2013-03-09 00:35:00
6:55 PM,62.6,44.6,52,30.09,10.0,ESE,5.8,-,N/A,,Overcast,120,2013-03-09 00:55:00
7:15 PM,62.6,44.6,52,30.09,10.0,SE,5.8,-,N/A,,Overcast,130,2013-03-09 01:15:00
7:35 PM,62.6,44.6,52,30.09,10.0,SE,6.9,-,N/A,,Overcast,130,2013-03-09 01:35:00
7:55 PM,62.6,42.8,48,30.09,10.0,SE,8.1,-,N/A,,Overcast,130,2013-03-09 01:55:00
8:15 PM,64.4,41.0,42,30.09,10.0,SE,8.1,-,N/A,,Overcast,130,2013-03-09 02:15:00
8:35 PM,64.4,39.2,40,30.09,10.0,SE,9.2,-,N/A,,Overcast,130,2013-03-09 02:35:00
8:55 PM,64.4,39.2,40,30.10,10.0,SE,8.1,-,N/A,,Overcast,140,2013-03-09 02:55:00
9:15 PM,62.6,37.4,39,30.10,10.0,SE,8.1,-,N/A,,Overcast,140,2013-03-09 03:15:00
9:35 PM,62.6,37.4,39,30.09,10.0,SE,11.5,-,N/A,,Overcast,140,2013-03-09 03:35:00
9:55 PM,62.6,37.4,39,30.09,10.0,SE,10.4,-,N/A,,Overcast,140,2013-03-09 03:55:00
10:15 PM,62.6,37.4,39,30.09,10.0,SSE,10.4,16.1,N/A,,Overcast,150,2013-03-09 04:15:00
10:35 PM,62.6,39.2,42,30.09,10.0,SSE,12.7,-,N/A,,Overcast,160,2013-03-09 04:35:00
10:55 PM,62.6,39.2,42,30.08,10.0,SSE,11.5,-,N/A,,Overcast,150,2013-03-09 04:55:00
11:15 PM,62.6,39.2,42,30.07,10.0,SSE,10.4,-,N/A,,Scattered Clouds,150,2013-03-09 05:15:00
11:35 PM,60.8,41.0,48,30.07,10.0,SSE,8.1,-,N/A,,Clear,150,2013-03-09 05:35:00
11:55 PM,60.8,41.0,48,30.06,10.0,SSE,10.4,-,N/A,,Clear,160,2013-03-09 05:55:00